Weather

DAILY 7 DAY TOTAL
onrain

Note: Some stations are located near irrigated fields and may also report irrigation

Alliston Mount Forest Blyth Guelph Grand Bend Strathroy Woodstock Belmont Simcoe Leamington Chatham West Lorne






Leamington-Base - Historical Weather Data
Date Max Temp (°C) Min Temp (°C) Avg Temp (°C) Rain (mm) 7Day Rain(mm) Total Rain(mm) Avg RH (%)
5/24/2018 29.3 11.4 20.6 0.0 17.8 122.0 58.2
5/23/2018 24.5 9.9 16.9 0.0 17.8 122.0 79.2
5/22/2018 25.8 12.6 17.3 5.8 17.8 122.0 86.4
5/21/2018 18.1 7.9 12.8 7.8 27.4 116.2 74.6
5/20/2018 18.5 10.5 15.4 0.2 25.6 108.4 83.8
5/19/2018 27.2 12.0 18.5 4.0 34.6 108.2 81.6
5/18/2018 17.9 10.3 14.0 0.0 56.0 104.2 58.6
5/17/2018 25.7 10.5 17.4 0.0 65.2 104.2 64.1
5/16/2018 22.2 9.5 15.9 0.0 65.8 104.2 67.6
5/15/2018 23.8 12.2 18.5 15.4 72.6 104.2 75.3
5/14/2018 23.7 10.2 15.6 6.0 57.2 88.8 83.2
5/13/2018 16.4 6.9 11.0 9.2 51.2 82.8 76.6
5/12/2018 10.4 5.8 8.1 25.4 44.6 73.6 91.7
5/11/2018 8.0 4.7 6.0 9.2 19.2 48.2 79.1
5/10/2018 23.0 8.4 18.1 0.6 12.0 39.0 70.9
5/9/2018 26.3 7.2 17.6 6.8 29.2 38.4 64.7
5/8/2018 21.5 4.9 14.0 0.0 31.6 31.6 57.1
5/7/2018 16.9 7.4 12.4 0.0 31.6 31.6 65.3
5/6/2018 24.8 11.1 15.5 2.6 31.6 31.6 73.2
5/5/2018 26.0 9.7 17.3 0.0 29.0 29.0 62.1
5/4/2018 25.1 11.8 18.5 2.0 34.0 29.0 62.9
5/3/2018 25.0 13.4 17.4 17.8 32.2 27.0 84.4
5/2/2018 28.5 12.9 20.2 9.2 14.4 9.2 54.0
5/1/2018 28.0 7.2 17.9 0.0 8.4 0.0 42.8